STARLINK-1171, 45062

Orbit data source: Space-Track

STARLINK-1171, 45062 is a payload satellite owned by SpaceX/Seattle (US) in LEO that was launched on Wed, 29 Jan 2020 UTC via an FALCON 9 launch vehicle from the Air Force Eastern Test Range (AFETR). Payload-class satellites include a variety of spacecraft equipped with specific instruments for various scientific and technological missions. These include communications satellites like Starlink; space stations such as the ISS; scientific satellites like the Hubble; Earth observation satellites from companies like Planet Labs, Umbra, and HawkEye 360; GPS; miniature CubeSats for education and research; and military/defense satellites.

Not visible in the next 10 days
Identifier
45062, 2020-006U
Orbit
LEO
Country
Flag of USUS
Related business
Manufacturer
SpaceX/Seattle
Mission
Partially operational Commercial Communications
Bus & Motor
STARLINK, Unknown motor
Mass
260 kg wet, ~248 kg dry
Launch date (UTC)
2020-01-29 (7 years ago)
Launch vehicle
FALCON 9
Launch site
Air Force Eastern Test Range (AFETR)
Object type
Payload
Rocket body
Debris
Shape & HBR
Box + 1 Pan, 10.1 m
Radar Cross Section
13.562 m², Large (>1 m²)

Expand to show TLE details & history
Last TLE update: 11 hours ago

TLE from 11 hours ago
0 STARLINK-1171
1 45062U 20006U   26236.00002315  .00129420  00000-0  44956-3 0  9994
2 45062  53.0320 136.6520 0004022 118.2716 354.1603 15.88548530  6037
Epoch: 2026-08-24T00:00Z
TLE epoch observation values (Epoch: 2026-08-24T00:00:02.000Z)
Latitude
47.75701°
Longitude
-71.14722°
Altitude
308.95 km
Speed
7.73 km/s
True Right ascension
17h 24m 35s
True Declination
47° 34' 27"
Sunlit
Object was in daylight at epoch
Visualization orbit readout
Latitude
Unknown
Longitude
Unknown
Altitude
Unknown
Speed
Unknown
Apparent Right ascension
Unknown
Apparent Declination
Unknown
Sunlit
N/A
Visualization observer readout
Local Sidereal Time
01:49:19
Azimuth
Unknown
Elevation
Unknown
Doppler factor
Unknown
Orbital elements
Apogee altitude
309.324 km
Perigee altitude
303.947 km
Semi-major axis
6,684.772 km
Eccentricity
0.0004
Inclination
53.032°
RAAN
136.652°
Arg. of periapsis
118.2716°
True anomaly
354.15561°
Mean anomaly
354.1603°
Eccentric anomaly
354.15795°
Mean motion
3.97112 °/min
Orbital period
90.65 mins
BSTAR
0.00044956
Loading maneuver chart data...
Computing Atmospheric mass density...

Documentation

Showing up to 5 results
|